Powrót do katalogu

STARLINK-36420

AktywnyŁącznośćVLEO
NORAD 67347·PAYLOAD·🇺🇸 United States

Wystrzelony Jan 9, 2026 z Cape Canaveral Space Force Station

Loading…

Następne Przeloty (najbliższe 24 godziny)

TLE

ŚwieżeSource: CelesTrak SupGP

Epoka: Sep 15, 2026, 03:02 UTC

1 67347C 26003P   26258.12687500 -.00028869  00000+0 -10458-2 0  2582
2 67347  43.0014 237.3436 0001197 264.2481 126.9865 15.27586975    17

Śledź STARLINK-36420 w czasie rzeczywistym z AllMySat

Download on the App Store